Location: Le Moustier
(44.1000°N, 6.5167°E)
Time: 23:06:17
(UTC+00:00)

Daily predictions for brighter satellites

Satellite Brightness Start Highest point End
(mag) Time Altitude Azimuth Time Altitude Azimuth Time Altitude Azimuth
Cosmos 1782 3.1 16:21:34 10° SSW 16:25:07 63° W 16:28:41 10° N
Cosmos 1933 3.8 16:21:54 10° SSE 16:25:25 36° E 16:28:57 10° NNE
USA 290 2.8 16:23:43 10° NNW 16:26:57 65° WSW 16:30:09 10° S
CBERS-1 4.0 16:25:55 10° SSE 16:31:02 80° ENE 16:36:10 10° NNW
Cosmos 2227 Rocket 2.4 16:25:37 10° NNW 16:31:08 51° ENE 16:36:36 10° SE
Meteor 1-28 Rocket 2.8 16:28:00 10° NNE 16:31:20 75° E 16:34:39 10° S
Cosmos 783 Rocket 4.5 16:29:45 10° NNW 16:35:04 71° ENE 16:40:19 10° SSE
Cosmos 1697 Rocket 2.7 16:34:43 10° SSW 16:40:18 80° ESE 16:45:57 10° NNE
CENTAUR R/B 4.2 16:36:08 10° WNW 16:40:58 23° NNW 16:46:40 10° NNE
CZ-2D R/B 3.5 16:40:14 10° SE 16:43:00 29° ENE 16:45:48 10° N
NOSS 2-3 (C) 3.3 16:41:07 10° SSW 16:44:30 51° ESE 16:47:48 11° NE
Cosmos 2058 Rocket 4.3 16:41:46 10° SE 16:45:09 21° E 16:48:32 10° NE
Cosmos 2266 Rocket 3.9 16:44:26 10° N 16:50:35 85° E 16:56:38 10° S
Cosmos 1606 Rocket 3.5 16:46:56 10° S 16:51:19 69° E 16:55:43 10° NNE
EXPRESS MD2 3.0 16:54:39 10° SW 16:56:55 42° SE 16:59:01 17° ENE
Lacrosse 5 rocket 3.4 16:55:58 10° NNW 16:57:05 11° N 16:58:11 10° NNE
Cosmos 1484 Rocket 4.2 16:54:59 10° SSW 16:58:16 37° W 17:01:33 10° NNW
Radarsat 4.5 16:54:02 10° SSE 16:59:11 77° ENE 17:04:23 10° N
Thor Agena Rocket 3.7 16:54:08 10° SSE 16:59:20 80° WSW 17:04:31 10° NNW
UNK 3.7 16:55:42 10° NNE 17:00:18 89° WNW 17:04:50 10° SSW
CZ-4C R/B 3.4 16:53:56 10° NW 17:01:10 73° WSW 17:09:59 10° SSE
IRS-P3 4.3 16:56:56 10° SE 17:02:03 50° ENE 17:07:09 10° N
NOSS 2-3 (D) 3.2 17:00:08 10° SW 17:03:51 79° NW 17:07:02 14° NE
NOSS 2-3 (E) 3.3 17:00:51 10° SW 17:04:30 72° NW 17:07:44 14° NNE
Cosmos 1354 Rocket 4.4 16:59:38 10° SSW 17:04:52 66° WNW 17:10:06 10° NNE
Cosmos-2242 3.7 17:04:25 10° SSE 17:08:12 32° E 17:11:23 13° NNE
USA 238 DEB 3.5 17:02:58 10° SSW 17:08:57 71° ESE 17:14:48 13° NE
MOS 1 Rocket 3.5 17:04:05 10° SSE 17:08:57 62° ENE 17:14:07 10° N
USA 238 3.5 17:03:05 10° SSW 17:09:04 70° ESE 17:14:54 14° NE
Meteor 2-20 4.5 17:03:42 10° S 17:09:43 59° E 17:15:46 10° NNE
Cosmos 2151 4.4 17:07:02 10° NNW 17:10:57 40° W 17:14:50 10° SSW
Cosmos 1898 Rocket 3.8 17:07:43 10° S 17:12:33 43° ESE 17:16:31 15° NE
Cosmos 1726 Rocket 3.6 17:09:12 10° S 17:13:50 88° E 17:18:26 10° N
Gbstr 26 Del rocket 3.4 17:10:17 10° W 17:14:14 44° NNW 17:16:29 21° NE
ERS-1 4.4 17:10:05 10° SSE 17:15:04 75° ENE 17:20:02 10° N
Cosmos 372 Rocket 4.0 17:10:10 10° S 17:15:11 57° ESE 17:19:40 13° NNE
USA 215 4.4 17:12:07 14° NE 17:16:29 29° N 17:21:54 10° WNW
AQUARIUS 4.0 17:12:12 10° SSE 17:16:35 74° ENE 17:21:00 10° N
SMAP 3.6 17:13:19 10° S 17:17:55 62° W 17:22:33 10° NNW
Cosmos 2082 4.1 17:14:16 10° NNW 17:19:38 40° ENE 17:24:59 10° SE
Landsat 7 4.0 17:17:24 10° S 17:22:02 73° WSW 17:26:42 10° NNW
Cosmos 1805 3.5 17:18:59 10° N 17:22:04 33° ENE 17:25:08 10° SE
Cosmos 2297 Rocket 4.4 17:18:26 10° NW 17:23:10 28° WSW 17:27:55 10° SSW
GEOS 3 Rocket 3.9 17:19:09 13° NNE 17:24:01 69° NW 17:29:21 10° SW
YAOGAN 1 3.1 17:21:02 10° SE 17:24:52 34° ENE 17:28:43 10° N
Cosmos 1937 Rocket 3.8 17:23:14 10° S 17:28:06 43° ESE 17:30:51 23° NE
Cosmos 923 Rocket 4.5 17:23:54 10° N 17:28:40 35° ENE 17:32:38 14° ESE
SL-16 R/B 3.5 17:25:49 10° SE 17:29:26 20° ESE 17:29:26 20° ESE
Meteor 2-20 Rocket 4.4 17:24:56 10° S 17:31:03 62° E 17:36:57 10° NNE
CZ-2D R/B 3.6 17:28:54 10° SE 17:32:55 47° ENE 17:36:54 10° N
SL-16 R/B 4.2 17:30:42 10° N 17:36:03 31° WNW 17:41:22 10° WSW
COSMOS 2455 3.5 17:31:23 10° S 17:36:44 35° ESE 17:38:36 29° ENE
Meteor 2-2 Rocket 4.2 17:31:25 10° S 17:36:57 62° E 17:42:30 10° NNE
Okean 1 3.0 17:33:59 10° S 17:37:30 55° E 17:38:21 42° NE
Cosmos 1244 Rocket 4.4 17:32:20 10° N 17:38:34 60° E 17:44:39 10° SSE
SKYMED 2 3.5 17:35:14 17° NNE 17:38:35 68° E 17:42:54 10° S
Cosmos 1980 Rocket 2.4 17:39:04 10° SSW 17:44:42 71° WNW 17:49:21 16° NNE
Aureole 1 Rocket 3.7 17:42:07 10° SSW 17:46:35 68° WNW 17:51:47 12° NNE
Cosmos 1844 Rocket 3.7 17:41:50 10° N 17:45:50 26° NE 17:45:50 26° NE
Cosmos 2219 3.1 17:41:07 10° NNW 17:46:53 77° ENE 17:52:38 10° SSE
Meteor 1-26 Rocket 4.0 17:42:12 10° S 17:47:35 78° E 17:52:49 11° NNE
Cosmos 1953 Rocket 4.2 17:44:33 10° NNW 17:48:55 57° W 17:53:16 10° S
PSLV R/B 3.9 17:45:09 10° SSE 17:50:00 40° NNE 17:52:57 10° N
Helios 1A Rocket 4.3 17:51:44 19° SSE 17:51:44 19° SSE 17:52:57 10° S
SL-08 R/B 4.5 17:43:29 10° N 17:49:46 62° E 17:56:02 10° SSE
ARIANE 5 R/B 3.8 17:46:16 10° S 17:51:03 42° W 17:55:56 10° NNW
SL-19 R/B 4.2 17:46:34 10° SSE 17:51:52 59° ENE 17:57:28 10° N
Cosmos 2263 Rocket 2.6 17:49:23 10° NNW 17:55:01 64° WSW 18:00:37 10° S
BREEZE-M DEB (TANK) 2.3 17:53:39 10° WSW 17:57:14 71° WSW 17:57:14 71° WSW
NOAA 15 4.5 17:53:56 10° SSE 17:59:14 84° ENE 18:04:32 10° NNW
COSMO-SKYMED 1 2.3 17:59:08 57° NE 17:59:54 76° ESE 18:04:00 10° S
Cosmos 1680 Rocket 3.6 17:55:21 10° N 18:00:23 48° ENE 18:00:23 48° ENE
BREEZE-M DEB (TANK) 4.2 17:56:33 10° WNW 18:00:35 72° NNE 18:06:53 27° ESE
NOAA 6 4.0 17:56:14 10° SSE 18:01:13 58° ENE 18:06:13 10° N
Cosmos 2369 3.6 17:56:36 10° SSW 18:02:19 89° WNW 18:05:20 30° NNE
Cosmos 967 Rocket 4.4 17:56:32 10° SSW 18:02:52 77° ESE 18:05:42 36° NE
Cosmos 2227 Rocket 4.4 18:10:17 10° NW 18:14:48 25° WSW 18:19:18 10° SSW
SPOT 1/Viking Rocket 4.3 18:10:01 10° S 18:15:05 54° W 18:20:12 10° NNW
Cosmos 2360 Rocket 4.4 18:12:56 10° SSE 18:13:06 11° SSE 18:13:06 11° SSE
Cosmos 2333 Rocket 3.4 18:26:35 10° S 18:29:34 29° SSE 18:29:34 29° SSE
Meteor 1-14 Rocket 4.4 18:34:28 10° N 18:39:09 61° N 18:39:09 61° N
Cosmos 2322 Rocket 4.1 18:37:37 10° S 18:39:03 18° S 18:39:03 18° S
USA 215 4.2 18:59:28 34° N 18:59:28 34° N 19:04:17 10° NW
S3M 4.1 18:53:32 10° SSW 18:59:17 71° SW 18:59:17 71° SW
BREEZE-M DEB (TANK) 3.9 19:01:15 10° WSW 19:06:16 51° W 19:06:16 51° W
SL-16 R/B 3.3 19:07:41 10° SW 19:11:20 40° SW 19:11:20 40° SW
COSMOS 2455 3.9 19:16:47 10° WSW 19:21:46 42° WNW 19:21:46 42° WNW
